TimeEST,TemperatureF,Dew PointF,Humidity,Sea Level PressureIn,VisibilityMPH,Wind Direction,Wind SpeedMPH,Gust SpeedMPH,PrecipitationIn,Events,Conditions,WindDirDegrees,DateUTC
12:53 AM,19.9,15.1,81,30.09,8.0,Calm,Calm,-,N/A,,Overcast,0,2013-01-26 05:53:00
1:53 AM,18.0,14.0,84,30.09,7.0,Calm,Calm,-,N/A,,Scattered Clouds,0,2013-01-26 06:53:00
2:53 AM,19.0,15.1,85,30.12,6.0,Calm,Calm,-,N/A,,Overcast,0,2013-01-26 07:53:00
3:53 AM,19.0,15.1,85,30.13,6.0,Calm,Calm,-,N/A,,Overcast,0,2013-01-26 08:53:00
4:53 AM,19.0,15.1,85,30.14,5.0,Calm,Calm,-,N/A,,Overcast,0,2013-01-26 09:53:00
5:53 AM,19.0,15.1,85,30.17,5.0,Calm,Calm,-,N/A,,Overcast,0,2013-01-26 10:53:00
6:53 AM,19.0,15.1,85,30.18,5.0,Calm,Calm,-,N/A,,Overcast,0,2013-01-26 11:53:00
7:53 AM,19.0,15.1,85,30.20,4.0,Calm,Calm,-,N/A,,Overcast,0,2013-01-26 12:53:00
8:53 AM,19.9,16.0,85,30.22,4.0,Calm,Calm,-,N/A,,Overcast,0,2013-01-26 13:53:00
9:07 AM,21.2,15.8,80,30.19,1.8,WSW,3.5,-,0.00,Snow,Light Snow,240,2013-01-26 14:07:00
9:28 AM,21.2,17.6,86,30.20,1.2,Calm,Calm,-,0.00,Snow,Light Snow,0,2013-01-26 14:28:00
9:49 AM,21.2,17.6,86,30.21,1.8,Calm,Calm,-,0.00,Snow,Light Snow,0,2013-01-26 14:49:00
9:53 AM,21.9,18.0,85,30.24,1.5,Calm,Calm,-,0.00,Snow,Light Snow,0,2013-01-26 14:53:00
10:24 AM,23.0,19.4,86,30.22,3.0,Calm,Calm,-,0.00,,Overcast,0,2013-01-26 15:24:00
10:53 AM,24.1,19.0,81,30.26,4.0,Calm,Calm,-,0.00,,Haze,0,2013-01-26 15:53:00
11:53 AM,28.0,19.9,72,30.24,5.0,Calm,Calm,-,0.00,,Haze,0,2013-01-26 16:53:00
12:09 PM,28.4,21.2,74,30.20,2.5,Calm,Calm,-,N/A,,Haze,0,2013-01-26 17:09:00
12:17 PM,28.4,21.2,74,30.20,6.0,Calm,Calm,-,N/A,,Haze,0,2013-01-26 17:17:00
12:53 PM,28.9,21.0,72,30.22,6.0,Calm,Calm,-,N/A,,Haze,0,2013-01-26 17:53:00
1:53 PM,30.0,21.9,72,30.22,2.5,Calm,Calm,-,0.00,Snow,Light Snow,0,2013-01-26 18:53:00
2:06 PM,30.2,21.2,69,30.20,1.5,Calm,Calm,-,0.00,Snow,Light Snow,0,2013-01-26 19:06:00
2:29 PM,28.4,23.0,80,30.21,0.8,Calm,Calm,-,0.00,Snow,Light Snow,0,2013-01-26 19:29:00
2:49 PM,28.4,24.8,86,30.21,1.2,Calm,Calm,-,0.00,Snow,Light Snow,0,2013-01-26 19:49:00
2:53 PM,28.9,24.1,82,30.24,1.5,Calm,Calm,-,0.00,Snow,Light Snow,0,2013-01-26 19:53:00
3:08 PM,28.4,24.8,86,30.22,1.5,Calm,Calm,-,0.00,Snow,Light Snow,0,2013-01-26 20:08:00
3:19 PM,28.4,24.8,86,30.22,2.5,Calm,Calm,-,0.00,Snow,Light Snow,0,2013-01-26 20:19:00
3:31 PM,28.4,24.8,86,30.23,3.0,Calm,Calm,-,0.00,,Haze,0,2013-01-26 20:31:00
3:53 PM,30.0,24.1,79,30.26,2.0,Calm,Calm,-,0.00,Snow,Light Snow,0,2013-01-26 20:53:00
4:15 PM,28.4,24.8,86,30.24,1.8,Calm,Calm,-,0.00,Snow,Light Snow,0,2013-01-26 21:15:00
4:26 PM,28.4,24.8,86,30.25,2.5,Calm,Calm,-,0.00,Snow,Light Snow,0,2013-01-26 21:26:00
4:37 PM,28.4,24.8,86,30.25,3.0,Calm,Calm,-,0.00,Snow,Light Snow,0,2013-01-26 21:37:00
4:53 PM,28.9,23.0,78,30.28,4.0,Calm,Calm,-,0.00,,Haze,0,2013-01-26 21:53:00
5:14 PM,28.4,23.0,80,30.27,1.8,Calm,Calm,-,0.00,Snow,Light Snow,0,2013-01-26 22:14:00
5:24 PM,28.4,23.0,80,30.27,1.5,Variable,3.5,-,0.01,Snow,Light Snow,0,2013-01-26 22:24:00
5:28 PM,28.4,23.0,80,30.27,2.0,NNE,3.5,-,0.01,Snow,Light Snow,30,2013-01-26 22:28:00
5:38 PM,28.4,24.8,86,30.27,5.0,Calm,Calm,-,0.01,,Haze,0,2013-01-26 22:38:00
5:53 PM,28.9,24.1,82,30.30,8.0,Calm,Calm,-,0.01,,Overcast,0,2013-01-26 22:53:00
6:53 PM,28.9,23.0,78,30.33,7.0,Calm,Calm,-,N/A,,Overcast,0,2013-01-26 23:53:00
7:53 PM,30.0,21.0,69,30.35,9.0,North,5.8,-,N/A,,Overcast,360,2013-01-27 00:53:00
8:53 PM,30.0,19.9,66,30.38,10.0,NNW,6.9,-,N/A,,Overcast,340,2013-01-27 01:53:00
9:53 PM,28.0,17.1,63,30.40,10.0,NW,6.9,-,N/A,,Clear,310,2013-01-27 02:53:00
10:53 PM,27.0,15.1,61,30.43,10.0,North,3.5,-,N/A,,Mostly Cloudy,360,2013-01-27 03:53:00
11:53 PM,28.0,15.1,58,30.45,10.0,WNW,5.8,-,N/A,,Overcast,300,2013-01-27 04:53:00